"Sample Date","Sample Time","Sample Value","Units","Flow Rate","Sample Interval","Number Channels","Micron Size 0","Counts/Channel 0","Micron Size 1","Counts/Channel 1","Micron Size 2","Counts/Channel 2","Micron Size 3","Counts/Channel 3","Micron Size 4","Counts/Channel 4","Micron Size 5","Counts/Channel 5","Micron Size 6","Counts/Channel 6","Micron Size 7","Counts/Channel 7","Micron Size 8","Counts/Channel 8","Micron Size 9","Counts/Channel 9","Micron Size 10","Counts/Channel 10","Micron Size 11","Counts/Channel 11","Micron Size 12","Counts/Channel 12","Micron Size 13","Counts/Channel 13","Micron Size 14","Counts/Channel 14","Micron Size 15","Counts/Channel 15","Micron Size 16","Counts/Channel 16","Micron Size 17","Counts/Channel 17","Micron Size 18","Counts/Channel 18","Micron Size 19","Counts/Channel 19","Micron Size 20","Counts/Channel 20","Micron Size 21","Counts/Channel 21","Micron Size 22","Counts/Channel 22","Micron Size 23","Counts/Channel 23","Micron Size 24","Counts/Channel 24","Micron Size 25","Counts/Channel 25","Micron Size 26","Counts/Channel 26","Micron Size 27","Counts/Channel 27","Micron Size 28","Counts/Channel 28","Micron Size 29","Counts/Channel 29","Micron Size 30","Counts/Channel 30","Micron Size 31","Counts/Channel 31"
"04/07/08","21:00:04",15934.000,"cc",28285.535,6.00,6,0.100,10905.000,0.200,1574.000,0.300,1256.000,0.500,1561.000,1.000,638.000,5.000,0
"04/07/08","21:00:10",16778.000,"cc",28258.582,6.00,6,0.100,11323.000,0.200,1692.000,0.300,1403.000,0.500,1660.000,1.000,700.000,5.000,0
"04/07/08","21:00:16",16757.000,"cc",28484.236,6.00,6,0.100,11236.000,0.200,1723.000,0.300,1408.000,0.500,1699.000,1.000,691.000,5.000,0
"04/07/08","21:00:22",16884.000,"cc",28331.299,6.00,6,0.100,11400.000,0.200,1716.000,0.300,1434.000,0.500,1640.000,1.000,694.000,5.000,0
"04/07/08","21:00:28",16974.000,"cc",28287.510,6.00,6,0.100,11544.000,0.200,1693.000,0.300,1389.000,0.500,1658.000,1.000,690.000,5.000,0
"04/07/08","21:00:34",17095.000,"cc",28314.627,6.00,6,0.100,11507.000,0.200,1741.000,0.300,1411.000,0.500,1723.000,1.000,713.000,5.000,0
"04/07/08","21:00:40",17415.000,"cc",28302.479,6.00,6,0.100,11429.000,0.200,1829.000,0.300,1548.000,0.500,1848.000,1.000,761.000,5.000,0
"04/07/08","21:00:46",17303.000,"cc",28289.697,6.00,6,0.100,11587.000,0.200,1832.000,0.300,1428.000,0.500,1692.000,1.000,764.000,5.000,0
"04/07/08","21:00:52",17144.000,"cc",28305.074,6.00,6,0.100,11437.000,0.200,1734.000,0.300,1479.000,0.500,1751.000,1.000,743.000,5.000,0
"04/07/08","21:00:58",17106.000,"cc",28319.635,6.00,6,0.100,11381.000,0.200,1730.000,0.300,1476.000,0.500,1776.000,1.000,743.000,5.000,0
"04/07/08","21:01:04",17104.000,"cc",28293.582,6.00,6,0.100,11367.000,0.200,1850.000,0.300,1450.000,0.500,1699.000,1.000,737.000,5.000,1.000
"04/07/08","21:01:10",17760.000,"cc",28178.924,6.00,6,0.100,11723.000,0.200,1940.000,0.300,1567.000,0.500,1819.000,1.000,711.000,5.000,0
"04/07/08","21:01:16",16690.000,"cc",28425.232,6.00,6,0.100,11134.000,0.200,1705.000,0.300,1434.000,0.500,1682.000,1.000,735.000,5.000,0
"04/07/08","21:01:22",16399.000,"cc",28324.561,6.00,6,0.100,11176.000,0.200,1598.000,0.300,1311.000,0.500,1611.000,1.000,703.000,5.000,0
"04/07/08","21:01:28",15756.000,"cc",28308.705,6.00,6,0.100,10810.000,0.200,1569.000,0.300,1266.000,0.500,1472.000,1.000,639.000,5.000,0
"04/07/08","21:01:34",16196.000,"cc",28411.063,6.00,6,0.100,11004.000,0.200,1625.000,0.300,1313.000,0.500,1579.000,1.000,675.000,5.000,0
"04/07/08","21:01:40",16342.000,"cc",28272.107,6.00,6,0.100,10901.000,0.200,1658.000,0.300,1446.000,0.500,1592.000,1.000,745.000,5.000,0
"04/07/08","21:01:46",16092.000,"cc",28352.537,6.00,6,0.100,10909.000,0.200,1584.000,0.300,1347.000,0.500,1599.000,1.000,653.000,5.000,0
"04/07/08","21:01:52",15877.000,"cc",28231.014,6.00,6,0.100,10916.000,0.200,1583.000,0.300,1285.000,0.500,1461.000,1.000,632.000,5.000,0
"04/07/08","21:01:58",15866.000,"cc",28344.363,6.00,6,0.100,10897.000,0.200,1532.000,0.300,1284.000,0.500,1478.000,1.000,675.000,5.000,0
"04/07/08","21:02:04",16129.000,"cc",28193.150,6.00,6,0.100,11042.000,0.200,1540.000,0.300,1303.000,0.500,1594.000,1.000,650.000,5.000,0
"04/07/08","21:02:10",15930.000,"cc",28355.262,6.00,6,0.100,10845.000,0.200,1514.000,0.300,1237.000,0.500,1671.000,1.000,663.000,5.000,0
"04/07/08","21:02:16",16107.000,"cc",28286.182,6.00,6,0.100,10922.000,0.200,1619.000,0.300,1309.000,0.500,1551.000,1.000,706.000,5.000,0
"04/07/08","21:02:22",16525.000,"cc",28309.908,6.00,6,0.100,11205.000,0.200,1651.000,0.300,1382.000,0.500,1599.000,1.000,688.000,5.000,0
"04/07/08","21:02:28",16557.000,"cc",28271.523,6.00,6,0.100,11074.000,0.200,1610.000,0.300,1442.000,0.500,1717.000,1.000,714.000,5.000,0
"04/07/08","21:02:34",16482.000,"cc",28309.561,6.00,6,0.100,11252.000,0.200,1584.000,0.300,1365.000,0.500,1609.000,1.000,672.000,5.000,0
"04/07/08","21:02:40",16784.000,"cc",28340.488,6.00,6,0.100,11247.000,0.200,1722.000,0.300,1390.000,0.500,1696.000,1.000,729.000,5.000,0
"04/07/08","21:02:46",17224.000,"cc",28400.201,6.00,6,0.100,11438.000,0.200,1772.000,0.300,1427.000,0.500,1793.000,1.000,794.000,5.000,0
"04/07/08","21:02:52",16512.000,"cc",28400.826,6.00,6,0.100,11144.000,0.200,1645.000,0.300,1340.000,0.500,1649.000,1.000,734.000,5.000,0
"04/07/08","21:02:58",16433.000,"cc",28202.191,6.00,6,0.100,11183.000,0.200,1624.000,0.300,1370.000,0.500,1587.000,1.000,669.000,5.000,0
"04/07/08","21:03:04",16438.000,"cc",28249.791,6.00,6,0.100,11057.000,0.200,1644.000,0.300,1453.000,0.500,1588.000,1.000,696.000,5.000,0
"04/07/08","21:03:10",16374.000,"cc",28395.066,6.00,6,0.100,11133.000,0.200,1677.000,0.300,1341.000,0.500,1577.000,1.000,646.000,5.000,0
"04/07/08","21:03:16",17201.000,"cc",28301.873,6.00,6,0.100,11664.000,0.200,1738.000,0.300,1359.000,0.500,1684.000,1.000,755.000,5.000,1.000
"04/07/08","21:03:22",16491.000,"cc",28323.604,6.00,6,0.100,11090.000,0.200,1623.000,0.300,1410.000,0.500,1589.000,1.000,779.000,5.000,0
"04/07/08","21:03:28",16555.000,"cc",28413.994,6.00,6,0.100,11039.000,0.200,1731.000,0.300,1416.000,0.500,1647.000,1.000,722.000,5.000,0
"04/07/08","21:03:34",16091.000,"cc",28278.857,6.00,6,0.100,10765.000,0.200,1630.000,0.300,1363.000,0.500,1631.000,1.000,702.000,5.000,0
"04/07/08","21:03:40",16374.000,"cc",28296.217,6.00,6,0.100,11157.000,0.200,1612.000,0.300,1360.000,0.500,1563.000,1.000,682.000,5.000,0
"04/07/08","21:03:46",17056.000,"cc",28340.518,6.00,6,0.100,11516.000,0.200,1683.000,0.300,1385.000,0.500,1696.000,1.000,776.000,5.000,0
"04/07/08","21:03:52",16352.000,"cc",28229.176,6.00,6,0.100,11004.000,0.200,1729.000,0.300,1345.000,0.500,1590.000,1.000,684.000,5.000,0
"04/07/08","21:03:58",16534.000,"cc",28249.400,6.00,6,0.100,11162.000,0.200,1699.000,0.300,1398.000,0.500,1635.000,1.000,640.000,5.000,0
"04/07/08","21:04:04",17086.000,"cc",28388.486,6.00,6,0.100,11452.000,0.200,1816.000,0.300,1409.000,0.500,1671.000,1.000,738.000,5.000,0
"04/07/08","21:04:10",17106.000,"cc",28398.057,6.00,6,0.100,11329.000,0.200,1882.000,0.300,1403.000,0.500,1764.000,1.000,728.000,5.000,0
"04/07/08","21:04:16",16873.000,"cc",28328.158,6.00,6,0.100,11233.000,0.200,1683.000,0.300,1473.000,0.500,1785.000,1.000,699.000,5.000,0
"04/07/08","21:04:22",17331.000,"cc",28291.875,6.00,6,0.100,11350.000,0.200,1893.000,0.300,1558.000,0.500,1789.000,1.000,741.000,5.000,0
"04/07/08","21:04:28",16981.000,"cc",28224.813,6.00,6,0.100,11411.000,0.200,1778.000,0.300,1437.000,0.500,1644.000,1.000,711.000,5.000,0
"04/07/08","21:04:34",17012.000,"cc",28406.914,6.00,6,0.100,11395.000,0.200,1705.000,0.300,1434.000,0.500,1759.000,1.000,719.000,5.000,0
"04/07/08","21:04:40",16631.000,"cc",28306.463,6.00,6,0.100,11284.000,0.200,1574.000,0.300,1355.000,0.500,1714.000,1.000,704.000,5.000,0
"04/07/08","21:04:46",16528.000,"cc",28246.992,6.00,6,0.100,11060.000,0.200,1679.000,0.300,1367.000,0.500,1689.000,1.000,733.000,5.000,0
"04/07/08","21:04:52",16819.000,"cc",28322.906,6.00,6,0.100,11113.000,0.200,1743.000,0.300,1425.000,0.500,1762.000,1.000,776.000,5.000,0
"04/07/08","21:04:58",16671.000,"cc",28323.619,6.00,6,0.100,11100.000,0.200,1737.000,0.300,1406.000,0.500,1713.000,1.000,715.000,5.000,0
"04/07/08","21:05:04",16632.000,"cc",28255.762,6.00,6,0.100,11079.000,0.200,1794.000,0.300,1376.000,0.500,1697.000,1.000,686.000,5.000,0
"04/07/08","21:05:10",17049.000,"cc",28248.389,6.00,6,0.100,11262.000,0.200,1859.000,0.300,1484.000,0.500,1736.000,1.000,708.000,5.000,0
"04/07/08","21:05:16",17019.000,"cc",28353.773,6.00,6,0.100,11311.000,0.200,1752.000,0.300,1467.000,0.500,1743.000,1.000,746.000,5.000,0
"04/07/08","21:05:22",16946.000,"cc",28391.094,6.00,6,0.100,11261.000,0.200,1722.000,0.300,1484.000,0.500,1724.000,1.000,755.000,5.000,0
"04/07/08","21:05:28",16661.000,"cc",28330.078,6.00,6,0.100,10986.000,0.200,1737.000,0.300,1474.000,0.500,1703.000,1.000,761.000,5.000,0
"04/07/08","21:05:34",16804.000,"cc",28373.158,6.00,6,0.100,11190.000,0.200,1735.000,0.300,1458.000,0.500,1728.000,1.000,693.000,5.000,0
"04/07/08","21:05:40",16613.000,"cc",28313.514,6.00,6,0.100,11086.000,0.200,1735.000,0.300,1391.000,0.500,1704.000,1.000,697.000,5.000,0
"04/07/08","21:05:46",16704.000,"cc",28260.035,6.00,6,0.100,11161.000,0.200,1717.000,0.300,1407.000,0.500,1668.000,1.000,751.000,5.000,0
"04/07/08","21:05:52",16697.000,"cc",28296.859,6.00,6,0.100,11053.000,0.200,1750.000,0.300,1444.000,0.500,1693.000,1.000,757.000,5.000,0
"04/07/08","21:05:58",17018.000,"cc",28313.018,6.00,6,0.100,11198.000,0.200,1830.000,0.300,1489.000,0.500,1761.000,1.000,740.000,5.000,0
"04/07/08","21:06:04",16436.000,"cc",28411.834,6.00,6,0.100,10933.000,0.200,1780.000,0.300,1359.000,0.500,1664.000,1.000,700.000,5.000,0
"04/07/08","21:06:10",16444.000,"cc",28358.232,6.00,6,0.100,10799.000,0.200,1679.000,0.300,1522.000,0.500,1706.000,1.000,738.000,5.000,0
"04/07/08","21:06:16",16804.000,"cc",28349.793,6.00,6,0.100,11228.000,0.200,1705.000,0.300,1394.000,0.500,1753.000,1.000,724.000,5.000,0
"04/07/08","21:06:22",16688.000,"cc",28310.326,6.00,6,0.100,11025.000,0.200,1777.000,0.300,1514.000,0.500,1669.000,1.000,703.000,5.000,0
"04/07/08","21:06:28",16749.000,"cc",28142.303,6.00,6,0.100,11133.000,0.200,1731.000,0.300,1451.000,0.500,1678.000,1.000,756.000,5.000,0
"04/07/08","21:06:34",17213.000,"cc",28267.156,6.00,6,0.100,11310.000,0.200,1872.000,0.300,1500.000,0.500,1751.000,1.000,780.000,5.000,0
"04/07/08","21:06:40",17158.000,"cc",28285.641,6.00,6,0.100,11333.000,0.200,1730.000,0.300,1568.000,0.500,1821.000,1.000,706.000,5.000,0
"04/07/08","21:06:46",16801.000,"cc",28344.244,6.00,6,0.100,11043.000,0.200,1859.000,0.300,1452.000,0.500,1716.000,1.000,731.000,5.000,0
"04/07/08","21:06:52",16701.000,"cc",28330.600,6.00,6,0.100,11160.000,0.200,1798.000,0.300,1417.000,0.500,1624.000,1.000,702.000,5.000,0
"04/07/08","21:06:58",16895.000,"cc",28357.465,6.00,6,0.100,11129.000,0.200,1826.000,0.300,1476.000,0.500,1671.000,1.000,793.000,5.000,0
"04/07/08","21:07:04",16973.000,"cc",28216.529,6.00,6,0.100,11146.000,0.200,1823.000,0.300,1533.000,0.500,1726.000,1.000,745.000,5.000,0
"04/07/08","21:07:10",17198.000,"cc",28395.400,6.00,6,0.100,11339.000,0.200,1787.000,0.300,1511.000,0.500,1734.000,1.000,827.000,5.000,0
"04/07/08","21:07:16",17030.000,"cc",28383.080,6.00,6,0.100,11327.000,0.200,1692.000,0.300,1460.000,0.500,1744.000,1.000,807.000,5.000,0
"04/07/08","21:07:22",16147.000,"cc",28324.920,6.00,6,0.100,10718.000,0.200,1694.000,0.300,1388.000,0.500,1635.000,1.000,712.000,5.000,0
"04/07/08","21:07:28",16116.000,"cc",28209.803,6.00,6,0.100,10749.000,0.200,1619.000,0.300,1361.000,0.500,1681.000,1.000,706.000,5.000,0
"04/07/08","21:07:34",16814.000,"cc",28239.313,6.00,6,0.100,11014.000,0.200,1885.000,0.300,1488.000,0.500,1707.000,1.000,720.000,5.000,0
"04/07/08","21:07:40",16525.000,"cc",28302.285,6.00,6,0.100,10942.000,0.200,1695.000,0.300,1412.000,0.500,1781.000,1.000,695.000,5.000,0
"04/07/08","21:07:46",16217.000,"cc",28316.621,6.00,6,0.100,10814.000,0.200,1697.000,0.300,1362.000,0.500,1612.000,1.000,732.000,5.000,0
"04/07/08","21:07:52",16143.000,"cc",28321.289,6.00,6,0.100,10691.000,0.200,1646.000,0.300,1456.000,0.500,1625.000,1.000,725.000,5.000,0
"04/07/08","21:07:58",16417.000,"cc",28429.762,6.00,6,0.100,10881.000,0.200,1724.000,0.300,1354.000,0.500,1723.000,1.000,735.000,5.000,0
"04/07/08","21:08:04",16404.000,"cc",28288.121,6.00,6,0.100,10963.000,0.200,1644.000,0.300,1463.000,0.500,1596.000,1.000,737.000,5.000,1.000
"04/07/08","21:08:10",15975.000,"cc",28350.281,6.00,6,0.100,10712.000,0.200,1636.000,0.300,1367.000,0.500,1567.000,1.000,693.000,5.000,0
"04/07/08","21:08:16",15854.000,"cc",28327.168,6.00,6,0.100,10677.000,0.200,1562.000,0.300,1379.000,0.500,1604.000,1.000,632.000,5.000,0
"04/07/08","21:08:22",16142.000,"cc",28297.397,6.00,6,0.100,10762.000,0.200,1686.000,0.300,1352.000,0.500,1651.000,1.000,691.000,5.000,0
"04/07/08","21:08:28",16131.000,"cc",28320.596,6.00,6,0.100,10667.000,0.200,1645.000,0.300,1396.000,0.500,1732.000,1.000,691.000,5.000,0
"04/07/08","21:08:34",16224.000,"cc",28338.799,6.00,6,0.100,10666.000,0.200,1715.000,0.300,1420.000,0.500,1663.000,1.000,760.000,5.000,0
"04/07/08","21:08:40",16157.000,"cc",28357.818,6.00,6,0.100,10604.000,0.200,1691.000,0.300,1426.000,0.500,1696.000,1.000,740.000,5.000,0
"04/07/08","21:08:46",15987.000,"cc",28278.441,6.00,6,0.100,10570.000,0.200,1673.000,0.300,1378.000,0.500,1679.000,1.000,687.000,5.000,0
"04/07/08","21:08:52",15995.000,"cc",28248.451,6.00,6,0.100,10651.000,0.200,1613.000,0.300,1382.000,0.500,1645.000,1.000,704.000,5.000,0
"04/07/08","21:08:58",15875.000,"cc",28297.148,6.00,6,0.100,10545.000,0.200,1664.000,0.300,1318.000,0.500,1604.000,1.000,744.000,5.000,0
"04/07/08","21:09:04",15993.000,"cc",28310.133,6.00,6,0.100,10476.000,0.200,1688.000,0.300,1398.000,0.500,1705.000,1.000,725.000,5.000,1.000
"04/07/08","21:09:10",16454.000,"cc",28456.068,6.00,6,0.100,10685.000,0.200,1755.000,0.300,1511.000,0.500,1740.000,1.000,763.000,5.000,0
"04/07/08","21:09:16",16211.000,"cc",28292.615,6.00,6,0.100,10565.000,0.200,1811.000,0.300,1443.000,0.500,1694.000,1.000,698.000,5.000,0
"04/07/08","21:09:22",15877.000,"cc",28341.904,6.00,6,0.100,10466.000,0.200,1662.000,0.300,1365.000,0.500,1684.000,1.000,700.000,5.000,0
"04/07/08","21:09:28",15843.000,"cc",28297.660,6.00,6,0.100,10435.000,0.200,1668.000,0.300,1349.000,0.500,1715.000,1.000,676.000,5.000,0
"04/07/08","21:09:34",16318.000,"cc",28264.174,6.00,6,0.100,10649.000,0.200,1784.000,0.300,1393.000,0.500,1731.000,1.000,761.000,5.000,0
"04/07/08","21:09:40",17041.000,"cc",28285.258,6.00,6,0.100,10992.000,0.200,1912.000,0.300,1516.000,0.500,1864.000,1.000,757.000,5.000,0
"04/07/08","21:09:46",16839.000,"cc",28364.580,6.00,6,0.100,10946.000,0.200,1870.000,0.300,1515.000,0.500,1746.000,1.000,762.000,5.000,0
"04/07/08","21:09:52",16372.000,"cc",28344.195,6.00,6,0.100,10624.000,0.200,1813.000,0.300,1501.000,0.500,1730.000,1.000,704.000,5.000,0
"04/07/08","21:09:58",15931.000,"cc",28306.815,6.00,6,0.100,10440.000,0.200,1728.000,0.300,1420.000,0.500,1627.000,1.000,716.000,5.000,0
"04/07/08","21:10:04",17634.000,"cc",28397.010,6.00,6,0.100,11328.000,0.200,2076.000,0.300,1645.000,0.500,1811.000,1.000,773.000,5.000,1.000
"04/07/08","21:10:10",16395.000,"cc",28226.484,6.00,6,0.100,10765.000,0.200,1820.000,0.300,1499.000,0.500,1582.000,1.000,729.000,5.000,0
"04/07/08","21:10:16",15885.000,"cc",28270.762,6.00,6,0.100,10573.000,0.200,1666.000,0.300,1299.000,0.500,1664.000,1.000,683.000,5.000,0
"04/07/08","21:10:22",15597.000,"cc",28245.777,6.00,6,0.100,10271.000,0.200,1612.000,0.300,1381.000,0.500,1619.000,1.000,714.000,5.000,0
"04/07/08","21:10:28",15071.000,"cc",28430.479,6.00,6,0.100,10045.000,0.200,1553.000,0.300,1217.000,0.500,1582.000,1.000,673.000,5.000,1.000
"04/07/08","21:10:34",14552.000,"cc",28364.281,6.00,6,0.100,9847.000,0.200,1442.000,0.300,1212.000,0.500,1418.000,1.000,633.000,5.000,0
"04/07/08","21:10:40",14316.000,"cc",28242.963,6.00,6,0.100,9557.000,0.200,1486.000,0.300,1223.000,0.500,1445.000,1.000,605.000,5.000,0
"04/07/08","21:10:46",14648.000,"cc",28278.721,6.00,6,0.100,9851.000,0.200,1506.000,0.300,1206.000,0.500,1469.000,1.000,616.000,5.000,0
"04/07/08","21:10:52",14838.000,"cc",28408.272,6.00,6,0.100,9898.000,0.200,1529.000,0.300,1280.000,0.500,1492.000,1.000,639.000,5.000,0
"04/07/08","21:10:58",14664.000,"cc",28277.076,6.00,6,0.100,9806.000,0.200,1508.000,0.300,1228.000,0.500,1477.000,1.000,645.000,5.000,0
"04/07/08","21:11:04",14718.000,"cc",28268.125,6.00,6,0.100,9874.000,0.200,1487.000,0.300,1223.000,0.500,1517.000,1.000,617.000,5.000,0
"04/07/08","21:11:10",15190.000,"cc",28308.793,6.00,6,0.100,9992.000,0.200,1616.000,0.300,1377.000,0.500,1508.000,1.000,697.000,5.000,0
"04/07/08","21:11:16",15152.000,"cc",28267.664,6.00,6,0.100,10123.000,0.200,1587.000,0.300,1293.000,0.500,1510.000,1.000,639.000,5.000,0
"04/07/08","21:11:22",14697.000,"cc",28247.328,6.00,6,0.100,10010.000,0.200,1403.000,0.300,1149.000,0.500,1529.000,1.000,606.000,5.000,0
"04/07/08","21:11:28",14899.000,"cc",28414.625,6.00,6,0.100,10000.000,0.200,1547.000,0.300,1218.000,0.500,1499.000,1.000,635.000,5.000,0
"04/07/08","21:11:34",15153.000,"cc",28299.027,6.00,6,0.100,10213.000,0.200,1554.000,0.300,1261.000,0.500,1537.000,1.000,588.000,5.000,0
"04/07/08","21:11:40",15290.000,"cc",28343.008,6.00,6,0.100,10106.000,0.200,1577.000,0.300,1331.000,0.500,1567.000,1.000,709.000,5.000,0
"04/07/08","21:11:46",14862.000,"cc",28348.994,6.00,6,0.100,10059.000,0.200,1455.000,0.300,1259.000,0.500,1415.000,1.000,674.000,5.000,0
"04/07/08","21:11:52",15199.000,"cc",28200.943,6.00,6,0.100,10018.000,0.200,1605.000,0.300,1318.000,0.500,1596.000,1.000,662.000,5.000,0
"04/07/08","21:11:58",14892.000,"cc",28332.201,6.00,6,0.100,9879.000,0.200,1560.000,0.300,1310.000,0.500,1497.000,1.000,646.000,5.000,0
"04/07/08","21:12:04",15144.000,"cc",28481.453,6.00,6,0.100,10167.000,0.200,1570.000,0.300,1253.000,0.500,1526.000,1.000,628.000,5.000,0
"04/07/08","21:12:10",14889.000,"cc",28305.418,6.00,6,0.100,9881.000,0.200,1615.000,0.300,1258.000,0.500,1474.000,1.000,661.000,5.000,0
"04/07/08","21:12:16",14977.000,"cc",28215.645,6.00,6,0.100,9916.000,0.200,1560.000,0.300,1304.000,0.500,1575.000,1.000,622.000,5.000,0
"04/07/08","21:12:22",15226.000,"cc",28345.443,6.00,6,0.100,10082.000,0.200,1515.000,0.300,1352.000,0.500,1594.000,1.000,682.000,5.000,1.000
"04/07/08","21:12:28",14354.000,"cc",28326.287,6.00,6,0.100,9670.000,0.200,1474.000,0.300,1226.000,0.500,1377.000,1.000,607.000,5.000,0
"04/07/08","21:12:34",14499.000,"cc",28401.625,6.00,6,0.100,9790.000,0.200,1480.000,0.300,1223.000,0.500,1376.000,1.000,630.000,5.000,0
"04/07/08","21:12:40",14886.000,"cc",28273.055,6.00,6,0.100,9966.000,0.200,1504.000,0.300,1262.000,0.500,1490.000,1.000,664.000,5.000,0
"04/07/08","21:12:46",14808.000,"cc",28254.205,6.00,6,0.100,9787.000,0.200,1565.000,0.300,1314.000,0.500,1489.000,1.000,653.000,5.000,0
"04/07/08","21:12:52",15194.000,"cc",28308.936,6.00,6,0.100,9979.000,0.200,1612.000,0.300,1354.000,0.500,1570.000,1.000,679.000,5.000,0
"04/07/08","21:12:58",14952.000,"cc",28352.127,6.00,6,0.100,9981.000,0.200,1547.000,0.300,1235.000,0.500,1531.000,1.000,658.000,5.000,0
"04/07/08","21:13:04",14074.000,"cc",28302.027,6.00,6,0.100,9512.000,0.200,1430.000,0.300,1168.000,0.500,1384.000,1.000,580.000,5.000,0
"04/07/08","21:13:10",14709.000,"cc",28373.170,6.00,6,0.100,9930.000,0.200,1470.000,0.300,1233.000,0.500,1441.000,1.000,635.000,5.000,0
"04/07/08","21:13:16",15146.000,"cc",28333.512,6.00,6,0.100,9972.000,0.200,1568.000,0.300,1306.000,0.500,1653.000,1.000,647.000,5.000,0
"04/07/08","21:13:22",14844.000,"cc",28195.340,6.00,6,0.100,9829.000,0.200,1597.000,0.300,1261.000,0.500,1523.000,1.000,634.000,5.000,0
"04/07/08","21:13:28",14602.000,"cc",28410.193,6.00,6,0.100,9839.000,0.200,1495.000,0.300,1153.000,0.500,1479.000,1.000,636.000,5.000,0
"04/07/08","21:13:34",15059.000,"cc",28170.740,6.00,6,0.100,10069.000,0.200,1600.000,0.300,1307.000,0.500,1478.000,1.000,605.000,5.000,0
"04/07/08","21:13:40",14849.000,"cc",28279.539,6.00,6,0.100,9846.000,0.200,1519.000,0.300,1283.000,0.500,1573.000,1.000,628.000,5.000,0
"04/07/08","21:13:46",15669.000,"cc",28416.471,6.00,6,0.100,10305.000,0.200,1608.000,0.300,1388.000,0.500,1673.000,1.000,695.000,5.000,0
"04/07/08","21:13:52",15288.000,"cc",28325.912,6.00,6,0.100,10165.000,0.200,1575.000,0.300,1319.000,0.500,1586.000,1.000,643.000,5.000,0
"04/07/08","21:13:58",15593.000,"cc",28276.217,6.00,6,0.100,10338.000,0.200,1592.000,0.300,1357.000,0.500,1641.000,1.000,665.000,5.000,0
"04/07/08","21:14:04",15155.000,"cc",28357.440,6.00,6,0.100,10022.000,0.200,1684.000,0.300,1315.000,0.500,1478.000,1.000,656.000,5.000,0
"04/07/08","21:14:10",14664.000,"cc",28362.537,6.00,6,0.100,9931.000,0.200,1493.000,0.300,1183.000,0.500,1436.000,1.000,620.000,5.000,1.000
"04/07/08","21:14:16",14802.000,"cc",28311.410,6.00,6,0.100,9872.000,0.200,1521.000,0.300,1213.000,0.500,1516.000,1.000,680.000,5.000,0
"04/07/08","21:14:22",15592.000,"cc",28255.887,6.00,6,0.100,10343.000,0.200,1598.000,0.300,1375.000,0.500,1580.000,1.000,696.000,5.000,0
"04/07/08","21:14:28",15192.000,"cc",28228.373,6.00,6,0.100,10228.000,0.200,1586.000,0.300,1298.000,0.500,1475.000,1.000,605.000,5.000,0
"04/07/08","21:14:34",15495.000,"cc",28297.963,6.00,6,0.100,10425.000,0.200,1595.000,0.300,1287.000,0.500,1534.000,1.000,654.000,5.000,0
"04/07/08","21:14:40",15726.000,"cc",28456.307,6.00,6,0.100,10208.000,0.200,1700.000,0.300,1433.000,0.500,1680.000,1.000,705.000,5.000,0
"04/07/08","21:14:46",15206.000,"cc",28260.035,6.00,6,0.100,10062.000,0.200,1592.000,0.300,1402.000,0.500,1533.000,1.000,617.000,5.000,0
"04/07/08","21:14:52",15021.000,"cc",28275.787,6.00,6,0.100,10065.000,0.200,1560.000,0.300,1300.000,0.500,1508.000,1.000,588.000,5.000,0
"04/07/08","21:14:58",15148.000,"cc",28284.068,6.00,6,0.100,10164.000,0.200,1499.000,0.300,1293.000,0.500,1541.000,1.000,651.000,5.000,0
"04/07/08","21:15:04",15255.000,"cc",28335.830,6.00,6,0.100,10149.000,0.200,1561.000,0.300,1376.000,0.500,1531.000,1.000,638.000,5.000,0
"04/07/08","21:15:10",15101.000,"cc",28389.633,6.00,6,0.100,10129.000,0.200,1547.000,0.300,1290.000,0.500,1510.000,1.000,625.000,5.000,0
"04/07/08","21:15:16",14956.000,"cc",28341.961,6.00,6,0.100,9954.000,0.200,1550.000,0.300,1294.000,0.500,1539.000,1.000,619.000,5.000,0
"04/07/08","21:15:22",15300.000,"cc",28344.668,6.00,6,0.100,10249.000,0.200,1605.000,0.300,1343.000,0.500,1468.000,1.000,635.000,5.000,0
"04/07/08","21:15:28",15376.000,"cc",28272.887,6.00,6,0.100,10184.000,0.200,1583.000,0.300,1327.000,0.500,1613.000,1.000,669.000,5.000,0
"04/07/08","21:15:34",15398.000,"cc",28313.758,6.00,6,0.100,10282.000,0.200,1607.000,0.300,1360.000,0.500,1518.000,1.000,631.000,5.000,0
"04/07/08","21:15:40",15437.000,"cc",28260.746,6.00,6,0.100,10202.000,0.200,1601.000,0.300,1343.000,0.500,1601.000,1.000,690.000,5.000,0
"04/07/08","21:15:46",15260.000,"cc",28344.303,6.00,6,0.100,10095.000,0.200,1654.000,0.300,1310.000,0.500,1527.000,1.000,674.000,5.000,0
"04/07/08","21:15:52",14775.000,"cc",28333.416,6.00,6,0.100,9951.000,0.200,1535.000,0.300,1187.000,0.500,1499.000,1.000,603.000,5.000,0
"04/07/08","21:15:58",14708.000,"cc",28308.457,6.00,6,0.100,9890.000,0.200,1534.000,0.300,1204.000,0.500,1464.000,1.000,616.000,5.000,0
"04/07/08","21:16:04",14523.000,"cc",28406.492,6.00,6,0.100,9815.000,0.200,1441.000,0.300,1273.000,0.500,1401.000,1.000,593.000,5.000,0
"04/07/08","21:16:10",14137.000,"cc",28357.080,6.00,6,0.100,9674.000,0.200,1303.000,0.300,1213.000,0.500,1361.000,1.000,586.000,5.000,0
"04/07/08","21:16:16",14420.000,"cc",28403.246,6.00,6,0.100,9821.000,0.200,1454.000,0.300,1228.000,0.500,1335.000,1.000,582.000,5.000,0
"04/07/08","21:16:22",14817.000,"cc",28306.996,6.00,6,0.100,10063.000,0.200,1476.000,0.300,1226.000,0.500,1441.000,1.000,611.000,5.000,0